OK2ZA-6 Weather Reports


time (UTC)temp
C
wind
direction
speed
KPH
gust
KPH
rain 1hr
cm
rain 24hr
cm
rain mn
cm
humidity
%
barometer
mb
20260905195004 17 324 8.0 14.5 0.00 0.05 0.05 58 1021.9
20260905194004 18 326 9.7 16.1 0.00 0.05 0.05 57 1021.6
20260905193004 18 324 12.9 20.9 0.00 0.05 0.05 56 1021.5
20260905192004 18 310 11.3 20.9 0.00 0.05 0.05 56 1021.4
20260905191004 18 306 12.9 19.3 0.00 0.05 0.05 58 1021.4
20260905190004 18 292 14.5 27.4 0.00 0.05 0.05 58 1021.3
20260905185004 18 253 8.0 12.9 0.00 0.05 0.05 59 1020.9
20260905184004 19 239 6.4 12.9 0.00 0.05 0.05 59 1020.7
20260905183004 19 246 6.4 11.3 0.00 0.05 0.05 58 1020.5
20260905182004 19 263 9.7 14.5 0.00 0.05 0.05 57 1020.4
20260905181004 20 268 12.9 22.5 0.00 0.05 0.05 56 1020.4
20260905180004 20 270 12.9 20.9 0.00 0.05 0.05 55 1020.3
20260905175004 20 269 12.9 22.5 0.00 0.05 0.05 54 1020.2
20260905174004 20 263 16.1 25.7 0.00 0.05 0.05 53 1020.0
20260905173004 20 262 19.3 32.2 0.00 0.05 0.05 52 1019.9
20260905172004 20 263 16.1 25.7 0.00 0.05 0.05 51 1019.9
20260905171004 21 260 14.5 30.6 0.00 0.05 0.05 50 1019.8
20260905170004 21 252 12.9 27.4 0.00 0.05 0.05 49 1019.7
20260905165004 21 263 14.5 24.1 0.00 0.05 0.05 49 1019.7
20260905164004 21 266 14.5 30.6 0.00 0.05 0.05 48 1019.6
20260905163004 21 261 19.3 30.6 0.00 0.05 0.05 47 1019.5
20260905162004 21 255 24.1 37.0 0.00 0.05 0.05 46 1019.4
20260905161004 21 263 20.9 37.0 0.00 0.05 0.05 46 1019.3
20260905160004 22 264 20.9 45.1 0.00 0.05 0.05 44 1019.3
20260905155004 22 268 25.7 43.5 0.00 0.05 0.05 45 1019.3
20260905154004 22 264 25.7 45.1 0.00 0.05 0.05 45 1019.3
20260905153004 22 267 24.1 43.5 0.00 0.05 0.05 45 1019.3
20260905152004 22 278 19.3 32.2 0.00 0.05 0.05 46 1019.2
20260905151004 22 286 24.1 37.0 0.00 0.05 0.05 45 1019.2
20260905150004 22 261 25.7 48.3 0.00 0.05 0.05 44 1019.2
20260905145004 22 261 24.1 45.1 0.00 0.05 0.05 43 1019.2
20260905144004 22 273 22.5 37.0 0.00 0.05 0.05 45 1019.2
20260905143004 22 277 25.7 45.1 0.00 0.05 0.05 43 1019.2
20260905142004 22 279 25.7 45.1 0.00 0.05 0.05 43 1019.3
20260905141003 22 274 24.1 43.5 0.00 0.05 0.05 44 1019.2
20260905140004 22 276 27.4 45.1 0.00 0.05 0.05 44 1019.3
20260905135004 22 233 22.5 40.2 0.00 0.05 0.05 45 1019.2
20260905134004 22 207 20.9 38.6 0.00 0.05 0.05 44 1019.3
20260905133004 22 212 24.1 37.0 0.00 0.05 0.05 45 1019.3
20260905132004 22 284 25.7 40.2 0.00 0.05 0.05 46 1019.4
20260905131004 21 249 27.4 40.2 0.00 0.05 0.05 47 1019.4
20260905130004 22 198 25.7 45.1 0.00 0.05 0.05 46 1019.4
20260905125003 22 195 24.1 41.8 0.00 0.05 0.05 46 1019.4
20260905124004 22 192 22.5 41.8 0.00 0.05 0.05 48 1019.3
20260905123004 22 186 22.5 40.2 0.00 0.05 0.05 47 1019.4
20260905122004 22 238 24.1 43.5 0.00 0.05 0.05 45 1019.5
20260905121003 21 268 24.1 41.8 0.00 0.05 0.05 45 1019.5
20260905120004 21 269 24.1 35.4 0.00 0.05 0.05 49 1019.5
20260905115004 21 212 24.1 40.2 0.00 0.05 0.05 49 1019.5
20260905114004 21 247 19.3 40.2 0.00 0.05 0.05 52 1019.5
20260905113004 21 260 20.9 33.8 0.00 0.05 0.05 52 1019.5
20260905112004 21 186 22.5 38.6 0.00 0.05 0.05 53 1019.6
20260905111004 21 175 17.7 40.2 0.00 0.05 0.05 54 1019.7
20260905110004 20 178 20.9 37.0 0.00 0.05 0.05 58 1019.7
20260905105004 20 174 22.5 48.3 0.00 0.05 0.05 58 1019.7
20260905104005 20 187 22.5 41.8 0.00 0.05 0.05 60 1019.6
20260905103005 20 176 19.3 33.8 0.00 0.05 0.05 61 1019.7
20260905102004 19 191 17.7 29.0 0.00 0.05 0.05 64 1019.6
20260905101004 19 177 17.7 29.0 0.00 0.05 0.05 64 1019.8
20260905100004 19 187 19.3 29.0 0.00 0.05 0.05 64 1020.0
20260905095004 19 182 16.1 24.1 0.00 0.05 0.05 67 1019.9
20260905094004 18 173 17.7 30.6 0.00 0.05 0.05 71 1019.9
20260905093004 18 167 14.5 24.1 0.00 0.05 0.05 73 1019.9
20260905092004 17 180 12.9 22.5 0.00 0.05 0.05 80 1020.0
20260905091004 16 264 12.9 16.1 0.00 0.05 0.05 81 1020.1
20260905090004 16 244 14.5 25.7 0.00 0.05 0.05 81 1020.1
20260905085004 16 239 14.5 22.5 0.00 0.05 0.05 84 1020.2
20260905084004 15 246 11.3 20.9 0.00 0.05 0.05 85 1020.2
20260905083004 15 272 8.0 16.1 0.00 0.05 0.05 86 1020.0
20260905082005 15 273 9.7 17.7 0.00 0.05 0.05 86 1020.0
20260905081004 15 271 8.0 17.7 0.00 0.05 0.05 86 1019.9
20260905080004 14 268 6.4 14.5 0.00 0.05 0.05 87 1019.7
20260905075004 14 270 9.7 16.1 0.00 0.05 0.05 88 1019.5
20260905074004 14 271 8.0 14.5 0.00 0.05 0.05 88 1019.3
20260905073004 14 281 9.7 16.1 0.03 0.05 0.05 89 1019.3
20260905072005 14 304 8.0 14.5 0.03 0.05 0.05 89 1018.5
20260905071004 14 308 8.0 16.1 0.05 0.05 0.05 89 1018.7
20260905070005 13 275 9.7 19.3 0.05 0.05 0.05 89 1018.8
20260905065004 13 227 9.7 14.5 0.05 0.05 0.05 88 1018.1
20260905064004 13 216 6.4 11.3 0.05 0.05 0.05 89 1017.9
20260905063004 13 245 9.7 16.1 0.05 0.05 0.05 88 1018.9
20260905062004 13 267 9.7 17.7 0.05 0.05 0.05 87 1019.2
20260905061004 13 277 11.3 17.7 0.03 0.03 0.03 85 1019.4
20260905060004 13 297 16.1 24.1 0.03 0.03 0.03 84 1019.1
20260905055004 14 301 17.7 29.0 0.03 0.03 0.03 84 1018.9
20260905054004 15 300 20.9 30.6 0.03 0.03 0.03 82 1018.8
20260905053004 15 294 16.1 30.6 0.00 0.00 0.00 81 1018.9
20260905052004 15 287 12.9 22.5 0.00 0.00 0.00 83 1018.6
20260905051004 15 287 9.7 19.3 0.00 0.00 0.00 83 1017.9
20260905050004 15 289 11.3 22.5 0.00 0.00 0.00 83 1017.8
20260905045004 15 301 14.5 19.3 0.00 0.00 0.00 82 1018.2
20260905044003 15 298 12.9 19.3 0.00 0.00 0.00 83 1018.0
20260905043004 15 298 14.5 20.9 0.00 0.00 0.00 83 1017.5
20260905042004 15 300 12.9 19.3 0.00 0.00 0.00 82 1017.5
20260905041004 16 295 12.9 20.9 0.00 0.00 0.00 80 1017.4
20260905040004 16 304 16.1 22.5 0.00 0.00 0.00 80 1017.2
20260905035004 16 300 19.3 32.2 0.00 0.00 0.00 78 1017.2
20260905034004 17 307 17.7 32.2 0.00 0.00 0.00 75 1017.2
20260905033004 17 312 17.7 32.2 0.00 0.00 0.00 75 1016.6
20260905032004 17 316 20.9 37.0 0.00 0.00 0.00 74 1016.4
20260905031004 17 305 22.5 33.8 0.00 0.00 0.00 72 1016.4
20260905030004 18 310 16.1 25.7 0.00 0.00 0.00 70 1016.4
20260905025004 18 320 9.7 16.1 0.00 0.00 0.00 69 1016.0
20260905024004 18 315 14.5 22.5 0.00 0.00 0.00 68 1015.8
20260905023004 18 320 17.7 29.0 0.00 0.00 0.00 68 1015.7
20260905022005 18 324 20.9 35.4 0.00 0.00 0.00 68 1015.4
20260905021004 18 317 16.1 27.4 0.00 0.00 0.00 68 1015.8
20260905020004 18 318 12.9 20.9 0.00 0.00 0.00 67 1015.6
20260905015004 18 326 17.7 27.4 0.00 0.00 0.00 67 1015.4
20260905014004 18 329 24.1 33.8 0.00 0.00 0.00 67 1015.1
20260905013004 18 325 20.9 33.8 0.00 0.00 0.00 68 1015.4
20260905012004 19 327 25.7 40.2 0.00 0.00 0.00 68 1015.3
20260905011004 20 325 29.0 46.7 0.00 0.00 0.00 67 1015.2
20260905010004 21 324 25.7 56.3 0.00 0.00 0.00 65 1015.1
20260905005004 22 296 11.3 32.2 0.00 0.00 0.00 59 1014.1
20260905004004 22 255 8.0 12.9 0.00 0.00 0.00 58 1013.5
20260905003004 22 241 8.0 14.5 0.00 0.00 0.00 57 1013.3
20260905002004 22 237 8.0 16.1 0.00 0.00 0.00 57 1013.1
20260905001004 22 238 8.0 14.5 0.00 0.00 0.00 57 1013.2
20260905000004 22 238 8.0 14.5 0.00 0.00 0.00 57 1013.0
20260904235004 22 238 3.2 8.0 0.00 0.00 0.00 57 1013.0
20260904234004 22 233 4.8 11.3 0.00 0.00 0.00 57 1012.9
20260904233004 22 232 4.8 12.9 0.00 0.00 0.00 56 1013.0
20260904232003 22 233 6.4 12.9 0.00 0.00 0.00 56 1013.0
20260904231004 22 236 4.8 11.3 0.00 0.00 0.00 56 1012.9
20260904230004 22 231 4.8 8.0 0.00 0.00 0.00 56 1012.9
20260904225004 23 228 6.4 11.3 0.00 0.00 0.00 56 1012.8
20260904224004 23 245 8.0 14.5 0.00 0.00 0.00 55 1012.7
20260904223004 23 177 6.4 11.3 0.00 0.00 0.00 56 1012.7
20260904222004 23 185 6.4 14.5 0.00 0.00 0.00 55 1012.8
20260904221004 23 193 4.8 12.9 0.00 0.00 0.00 55 1012.6
20260904220006 23 188 4.8 11.3 0.00 0.00 0.00 55 1012.5
20260904215004 23 236 4.8 8.0 0.00 0.00 0.00 55 1012.5
20260904214005 23 187 4.8 9.7 0.00 0.00 0.00 54 1012.5
20260904213004 23 200 6.4 14.5 0.00 0.00 0.00 54 1012.5
20260904212004 23 208 4.8 11.3 0.00 0.00 0.00 55 1012.6
20260904211004 22 193 3.2 9.7 0.00 0.00 0.00 55 1012.6
20260904210004 22 169 0.0 8.0 0.00 0.00 0.00 55 1012.5
20260904205004 23 148 3.2 9.7 0.00 0.00 0.00 54 1012.6
20260904204003 23 149 1.6 8.0 0.00 0.00 0.00 52 1012.6
20260904203004 23 146 1.6 6.4 0.00 0.00 0.00 52 1012.7
20260904202004 24 156 0.0 3.2 0.00 0.00 0.00 51 1012.9
20260904201004 24 156 1.6 4.8 0.00 0.00 0.00 50 1013.0
20260904200004 24 161 1.6 8.0 0.00 0.00 0.00 50 1013.1